FW1874 Weather Reports


Display with metric or nautical units.
time (UTC)temp
F
wind
direction
speed
MPH
gust
MPH
rain 1hr
in
rain 24hr
in
rain mn
in
humidity
%
barometer
mb
20181210003006 22 275 0.0 0.0 0.00 0.00 0.00 91 1024.0
20181210001509 22 275 0.0 0.0 0.00 0.00 0.00 90 1024.0
20181210000006 22 275 0.0 0.0 0.00 0.00 0.00 89 1024.4
20181209234506 23 275 0.0 0.0 0.00 0.00 0.00 89 1024.4
20181209233005 23 275 0.0 0.0 0.00 0.00 0.00 89 1024.0
20181209231514 24 275 0.0 0.0 0.00 0.00 0.00 88 1024.0
20181209230006 25 275 0.0 0.0 0.00 0.00 0.00 86 1024.0
20181209224511 26 275 0.0 0.0 0.00 0.00 0.00 85 1024.0
20181209223011 26 275 0.0 0.0 0.00 0.00 0.00 83 1024.0
20181209221505 27 275 0.0 1.0 0.00 0.00 0.00 82 1024.0
20181209220005 28 275 0.0 3.0 0.00 0.00 0.00 81 1024.0
20181209214506 28 275 0.0 4.0 0.00 0.00 0.00 78 1024.0
20181209213019 29 274 1.0 6.0 0.00 0.00 0.00 76 1024.0
20181209211514 30 296 1.0 3.0 0.00 0.00 0.00 73 1024.0
20181209210006 31 224 1.0 4.0 0.00 0.00 0.00 71 1024.0
20181209204517 32 215 2.0 8.0 0.00 0.00 0.00 67 1023.7
20181209203005 32 225 2.0 7.0 0.00 0.00 0.00 67 1024.0
20181209201510 32 218 2.0 6.0 0.00 0.00 0.00 68 1024.0
20181209200009 32 225 2.0 8.0 0.00 0.00 0.00 67 1024.0
20181209194509 33 223 2.0 9.0 0.00 0.00 0.00 67 1024.0
20181209193012 33 228 2.0 6.0 0.00 0.00 0.00 70 1024.4
20181209191505 33 220 1.0 6.0 0.00 0.00 0.00 71 1024.4
20181209190006 32 215 2.0 5.0 0.00 0.00 0.00 72 1024.4
20181209184511 32 209 2.0 4.0 0.00 0.00 0.00 73 1024.4
20181209183017 32 221 2.0 9.0 0.00 0.00 0.00 73 1024.7
20181209181508 32 216 1.0 4.0 0.00 0.00 0.00 76 1025.0
20181209180008 32 210 3.0 6.0 0.00 0.00 0.00 76 1025.4
20181209174507 31 216 2.0 7.0 0.00 0.00 0.00 78 1025.4
20181209173005 30 224 3.0 10.0 0.00 0.00 0.00 79 1026.0
20181209171510 30 215 2.0 8.0 0.00 0.00 0.00 79 1026.0
20181209170014 30 213 2.0 9.0 0.00 0.00 0.00 79 1026.4
20181209164514 30 194 2.0 6.0 0.00 0.00 0.00 79 1026.7
20181209163011 30 197 1.0 4.0 0.00 0.00 0.00 80 1027.1
20181209161511 29 213 1.0 5.0 0.00 0.00 0.00 80 1027.4
20181209160007 29 205 1.0 4.0 0.00 0.00 0.00 80 1027.7
20181209154514 29 206 2.0 5.0 0.00 0.00 0.00 81 1028.1
20181209153006 29 207 1.0 3.0 0.00 0.00 0.00 81 1028.8
20181209151505 29 199 1.0 4.0 0.00 0.00 0.00 81 1028.8
20181209150005 28 195 0.0 3.0 0.00 0.00 0.00 82 1028.8
20181209144507 28 190 0.0 1.0 0.00 0.00 0.00 83 1028.8
20181209143011 28 190 1.0 3.0 0.00 0.00 0.00 83 1028.8
20181209141506 27 190 1.0 4.0 0.00 0.00 0.00 84 1028.8
20181209140006 27 190 1.0 3.0 0.00 0.00 0.00 84 1028.8
20181209134514 26 190 1.0 3.0 0.00 0.00 0.00 85 1028.8
20181209133014 26 202 0.0 2.0 0.00 0.00 0.00 85 1028.8
20181209131514 26 202 0.0 2.0 0.00 0.00 0.00 85 1029.1
20181209130010 25 202 0.0 2.0 0.00 0.00 0.00 86 1029.1
20181209124513 25 202 0.0 0.0 0.00 0.00 0.00 86 1029.4
20181209123008 25 213 0.0 2.0 0.00 0.00 0.00 86 1029.4
20181209121507 24 213 0.0 1.0 0.00 0.00 0.00 87 1029.4
20181209120005 24 213 0.0 0.0 0.00 0.00 0.00 88 1029.8
20181209114510 24 213 0.0 0.0 0.00 0.00 0.00 88 1029.4
20181209113020 24 213 0.0 1.0 0.00 0.00 0.00 88 1029.8
20181209111518 24 213 0.0 0.0 0.00 0.00 0.00 88 1029.8
20181209110015 24 213 0.0 0.0 0.00 0.00 0.00 88 1029.8
20181209104505 24 213 0.0 0.0 0.00 0.00 0.00 88 1029.8
20181209103007 24 213 0.0 0.0 0.00 0.00 0.00 88 1030.1
20181209101514 24 213 0.0 0.0 0.00 0.00 0.00 88 1030.1
20181209100015 24 213 0.0 0.0 0.00 0.00 0.00 87 1030.4
20181209094515 24 213 0.0 0.0 0.00 0.00 0.00 87 1030.4
20181209093008 24 213 0.0 0.0 0.00 0.00 0.00 86 1030.8
20181209091510 24 213 0.0 0.0 0.00 0.00 0.00 86 1030.8
20181209090013 24 213 0.0 0.0 0.00 0.00 0.00 86 1031.1
20181209084516 24 213 0.0 0.0 0.00 0.00 0.00 86 1031.1
20181209083014 24 213 0.0 0.0 0.00 0.00 0.00 86 1031.5
20181209080007 24 213 0.0 0.0 0.00 0.00 0.00 86 1031.8
20181209074512 24 213 0.0 0.0 0.00 0.00 0.00 86 1031.8
20181209073011 24 213 0.0 0.0 0.00 0.00 0.00 86 1032.1
20181209071505 24 213 0.0 1.0 0.00 0.00 0.00 87 1032.5
20181209070005 23 213 0.0 0.0 0.00 0.00 0.00 88 1032.5
20181209064510 23 213 0.0 0.0 0.00 0.00 0.00 88 1032.5
20181209063005 22 213 0.0 0.0 0.00 0.00 0.00 89 1032.8
20181209061505 22 213 0.0 0.0 0.00 0.00 0.00 89 1032.5
20181209060005 21 213 0.0 0.0 0.00 0.00 0.00 90 1032.8
20181209054516 21 213 0.0 0.0 0.00 0.00 0.00 90 1033.2
20181209053007 20 213 0.0 0.0 0.00 0.00 0.00 90 1033.2
20181209051512 19 213 0.0 1.0 0.00 0.00 0.00 90 1033.2
20181209050006 18 213 0.0 0.0 0.00 0.00 0.00 89 1033.5
20181209044505 17 213 0.0 0.0 0.00 0.00 0.00 89 1033.5
20181209043015 17 213 0.0 0.0 0.00 0.00 0.00 87 1033.8
20181209041505 18 213 0.0 1.0 0.00 0.00 0.00 87 1033.8
20181209040015 18 213 0.0 0.0 0.00 0.00 0.00 85 1033.8
20181209034517 19 213 0.0 0.0 0.00 0.00 0.00 84 1033.8
20181209033015 20 213 0.0 0.0 0.00 0.00 0.00 83 1033.8
20181209031508 21 213 0.0 0.0 0.00 0.00 0.00 82 1033.8
20181209030015 23 213 0.0 0.0 0.00 0.00 0.00 80 1033.8
20181209024507 24 213 0.0 1.0 0.00 0.00 0.00 80 1033.8
20181209023006 25 213 0.0 4.0 0.00 0.00 0.00 80 1033.8
20181209021516 25 213 0.0 2.0 0.00 0.00 0.00 81 1033.5
20181209020005 25 218 1.0 4.0 0.00 0.00 0.00 81 1033.8
20181209014506 26 218 0.0 4.0 0.00 0.00 0.00 81 1033.8
20181209013010 26 202 0.0 2.0 0.00 0.00 0.00 81 1033.8
20181209011511 26 200 1.0 4.0 0.00 0.00 0.00 80 1033.8
20181209010005 26 290 0.0 2.0 0.00 0.00 0.00 80 1033.8
20181209004507 26 290 0.0 3.0 0.00 0.00 0.00 79 1033.8